When you browse on this site, cookies collect data to enhance your experience and personalize the content and advertising you see.
Visit our Privacy Policy to learn more. By continuing to use the site, you agree to this use of cookies and data.
  • In Belgien
  • Länderverzeichnis
  • Für 7 Tage
  • Wassertemperatur
  • Satellitenkarten
  • Wetterkarte
  • Widgets
  • user-avatar
    Anmelden

    Stündliche Wetter Albena

    Heute, 18 Juni, Dienstag

    Zeit Temperatur Niederschläge Wind Luftdruck Luftfeuchtigkeit
    00:00 +20°C° 0 mm 3 m/S 745 mmHg 79%
    01:00 +20°C° 0 mm 3 m/S 745 mmHg 77%
    02:00 +20°C° 0 mm 3 m/S 745 mmHg 75%
    03:00 +19°C° 0 mm 4 m/S 745 mmHg 76%
    04:00 +19°C° 0 mm 4 m/S 744 mmHg 77%
    05:00 +19°C° 0 mm 4 m/S 744 mmHg 78%
    06:00 +21°C° 0 mm 4 m/S 745 mmHg 73%
    07:00 +23°C° 0 mm 4 m/S 745 mmHg 68%
    08:00 +26°C° 0 mm 4 m/S 745 mmHg 64%
    09:00 +27°C° 0 mm 4 m/S 746 mmHg 58%
    10:00 +28°C° 0 mm 4 m/S 746 mmHg 53%
    11:00 +30°C° 0 mm 4 m/S 746 mmHg 48%
    12:00 +29°C° 0 mm 5 m/S 746 mmHg 48%
    13:00 +29°C° 0 mm 5 m/S 745 mmHg 49%
    14:00 +30°C° 0 mm 5 m/S 746 mmHg 48%
    15:00 +29°C° 0 mm 5 m/S 745 mmHg 49%
    16:00 +29°C° 0 mm 5 m/S 745 mmHg 51%
    17:00 +28°C° 0 mm 5 m/S 745 mmHg 52%
    18:00 +26°C° 0 mm 4 m/S 745 mmHg 59%
    19:00 +24°C° 0 mm 3 m/S 745 mmHg 66%
    20:00 +21°C° 0 mm 2 m/S 745 mmHg 74%
    21:00 +21°C° 0 mm 2 m/S 745 mmHg 74%
    22:00 +20°C° 0 mm 2 m/S 745 mmHg 75%
    23:00 +19°C° 0 mm 2 m/S 745 mmHg 76%

    Morgen, 19 Juni, Mittwoch

    Zeit Temperatur Niederschläge Wind Luftdruck Luftfeuchtigkeit
    00:00 +19°C° 0 mm 2 m/S 745 mmHg 77%
    01:00 +18°C° 0 mm 2 m/S 745 mmHg 78%
    02:00 +18°C° 0 mm 2 m/S 745 mmHg 80%
    03:00 +18°C° 0 mm 3 m/S 745 mmHg 78%
    04:00 +18°C° 0 mm 3 m/S 745 mmHg 76%
    05:00 +18°C° 0 mm 3 m/S 745 mmHg 75%
    06:00 +20°C° 0 mm 3 m/S 745 mmHg 68%
    07:00 +22°C° 0 mm 3 m/S 745 mmHg 61%
    08:00 +25°C° 0 mm 3 m/S 745 mmHg 54%
    09:00 +27°C° 0 mm 3 m/S 745 mmHg 50%
    10:00 +28°C° 0 mm 3 m/S 745 mmHg 46%
    11:00 +29°C° 0 mm 3 m/S 745 mmHg 41%
    12:00 +30°C° 0 mm 3 m/S 745 mmHg 41%
    13:00 +30°C° 0 mm 3 m/S 744 mmHg 41%
    14:00 +30°C° 0 mm 3 m/S 744 mmHg 41%
    15:00 +30°C° 0 mm 2 m/S 744 mmHg 44%
    16:00 +29°C° 0 mm 2 m/S 743 mmHg 47%
    17:00 +29°C° 0 mm 2 m/S 743 mmHg 50%
    18:00 +27°C° 0 mm 2 m/S 743 mmHg 58%
    19:00 +25°C° 0 mm 2 m/S 743 mmHg 67%
    20:00 +23°C° 0 mm 1 m/S 743 mmHg 75%
    21:00 +22°C° 0 mm 1 m/S 743 mmHg 77%
    22:00 +20°C° 0 mm 2 m/S 743 mmHg 79%
    23:00 +20°C° 0 mm 2 m/S 743 mmHg 82%

    übermorgen, 20 Juni, Donnerstag

    Zeit Temperatur Niederschläge Wind Luftdruck Luftfeuchtigkeit
    00:00 +19°C° 0 mm 2 m/S 743 mmHg 83%
    01:00 +19°C° 0 mm 2 m/S 743 mmHg 85%
    02:00 +18°C° 0 mm 2 m/S 743 mmHg 87%
    03:00 +18°C° 0 mm 2 m/S 743 mmHg 88%
    04:00 +18°C° 0 mm 2 m/S 743 mmHg 89%
    05:00 +18°C° 0 mm 2 m/S 743 mmHg 90%
    06:00 +20°C° 0 mm 2 m/S 743 mmHg 81%
    07:00 +22°C° 0 mm 3 m/S 743 mmHg 72%
    08:00 +25°C° 0 mm 3 m/S 743 mmHg 63%
    09:00 +26°C° 0 mm 2 m/S 743 mmHg 58%
    10:00 +28°C° 0 mm 2 m/S 744 mmHg 53%
    11:00 +29°C° 0 mm 2 m/S 744 mmHg 48%
    12:00 +29°C° 0 mm 2 m/S 743 mmHg 48%
    13:00 +29°C° 0 mm 3 m/S 743 mmHg 49%
    14:00 +29°C° 0 mm 3 m/S 743 mmHg 49%
    15:00 +29°C° 0 mm 3 m/S 743 mmHg 51%
    16:00 +29°C° 0 mm 3 m/S 743 mmHg 54%
    17:00 +28°C° 0 mm 3 m/S 742 mmHg 57%
    18:00 +26°C° 0 mm 2 m/S 743 mmHg 64%
    19:00 +25°C° 0 mm 1 m/S 743 mmHg 72%
    20:00 +23°C° 0 mm 1 m/S 743 mmHg 80%
    21:00 +22°C° 0 mm 1 m/S 743 mmHg 80%
    22:00 +22°C° 0 mm 1 m/S 743 mmHg 81%
    23:00 +20°C° 0 mm 2 m/S 744 mmHg 81%

    21 Juni, Freitag

    Zeit Temperatur Niederschläge Wind Luftdruck Luftfeuchtigkeit
    00:00 +20°C° 0 mm 2 m/S 743 mmHg 83%
    01:00 +20°C° 0 mm 2 m/S 743 mmHg 85%
    02:00 +19°C° 0 mm 2 m/S 743 mmHg 88%
    03:00 +19°C° 0 mm 2 m/S 743 mmHg 87%
    04:00 +19°C° 0 mm 2 m/S 743 mmHg 87%
    05:00 +19°C° 0 mm 2 m/S 743 mmHg 87%
    06:00 +21°C° 0 mm 2 m/S 743 mmHg 79%
    07:00 +24°C° 0 mm 2 m/S 744 mmHg 72%
    08:00 +26°C° 0 mm 2 m/S 744 mmHg 65%
    09:00 +27°C° 0 mm 2 m/S 744 mmHg 61%
    10:00 +28°C° 0 mm 2 m/S 744 mmHg 57%
    11:00 +30°C° 0 mm 2 m/S 744 mmHg 54%
    12:00 +30°C° 0 mm 2 m/S 744 mmHg 52%
    13:00 +31°C° 0 mm 3 m/S 744 mmHg 50%
    14:00 +31°C° 0 mm 3 m/S 744 mmHg 48%
    15:00 +30°C° 0.1 mm 3 m/S 744 mmHg 53%
    16:00 +29°C° 0.1 mm 3 m/S 744 mmHg 57%
    17:00 +29°C° 0.1 mm 3 m/S 743 mmHg 61%
    18:00 +27°C° 0.1 mm 3 m/S 743 mmHg 68%
    19:00 +25°C° 0.1 mm 2 m/S 744 mmHg 76%
    20:00 +23°C° 0.1 mm 2 m/S 744 mmHg 83%
    21:00 +23°C° 0 mm 2 m/S 744 mmHg 83%
    22:00 +21°C° 0 mm 2 m/S 744 mmHg 83%
    23:00 +21°C° 0 mm 3 m/S 744 mmHg 83%

    22 Juni, Samstag

    Zeit Temperatur Niederschläge Wind Luftdruck Luftfeuchtigkeit
    00:00 +21°C° 0 mm 3 m/S 744 mmHg 82%
    01:00 +20°C° 0 mm 3 m/S 744 mmHg 81%
    02:00 +20°C° 0 mm 3 m/S 743 mmHg 80%
    03:00 +20°C° 0 mm 3 m/S 744 mmHg 81%
    04:00 +20°C° 0 mm 3 m/S 744 mmHg 81%
    05:00 +20°C° 0 mm 3 m/S 744 mmHg 82%
    06:00 +22°C° 0 mm 3 m/S 744 mmHg 76%
    07:00 +25°C° 0 mm 3 m/S 744 mmHg 70%
    08:00 +27°C° 0 mm 3 m/S 745 mmHg 64%
    09:00 +28°C° 0 mm 3 m/S 745 mmHg 59%
    10:00 +30°C° 0 mm 2 m/S 745 mmHg 53%
    11:00 +31°C° 0 mm 2 m/S 745 mmHg 47%
    12:00 +31°C° 0 mm 2 m/S 745 mmHg 47%
    13:00 +33°C° 0 mm 3 m/S 745 mmHg 46%
    14:00 +33°C° 0 mm 3 m/S 745 mmHg 45%
    15:00 +30°C° 0.9 mm 4 m/S 745 mmHg 52%
    16:00 +27°C° 0.9 mm 5 m/S 744 mmHg 59%
    17:00 +24°C° 0.9 mm 6 m/S 744 mmHg 67%
    18:00 +25°C° 0.1 mm 5 m/S 744 mmHg 66%
    19:00 +23°C° 0.1 mm 4 m/S 745 mmHg 66%
    20:00 +23°C° 0.1 mm 2 m/S 745 mmHg 65%
    21:00 +23°C° 0 mm 2 m/S 745 mmHg 66%
    22:00 +23°C° 0 mm 2 m/S 745 mmHg 67%
    23:00 +23°C° 0 mm 2 m/S 745 mmHg 68%

    23 Juni, Sonntag

    Zeit Temperatur Niederschläge Wind Luftdruck Luftfeuchtigkeit
    00:00 +21°C° 0 mm 2 m/S 745 mmHg 70%
    01:00 +21°C° 0 mm 2 m/S 745 mmHg 72%
    02:00 +22°C° 0 mm 1 m/S 745 mmHg 74%
    03:00 +21°C° 0 mm 1 m/S 745 mmHg 73%
    04:00 +21°C° 0 mm 1 m/S 745 mmHg 73%
    05:00 +21°C° 0 mm 1 m/S 745 mmHg 73%
    06:00 +23°C° 0 mm 1 m/S 745 mmHg 68%
    07:00 +25°C° 0 mm 1 m/S 745 mmHg 63%
    08:00 +27°C° 0 mm 1 m/S 745 mmHg 58%
    09:00 +29°C° 0 mm 1 m/S 745 mmHg 54%
    10:00 +30°C° 0 mm 1 m/S 745 mmHg 49%
    11:00 +32°C° 0 mm 1 m/S 745 mmHg 45%
    12:00 +32°C° 0 mm 1 m/S 745 mmHg 44%
    13:00 +32°C° 0 mm 1 m/S 745 mmHg 43%
    14:00 +34°C° 0 mm 2 m/S 745 mmHg 42%
    15:00 +32°C° 0 mm 2 m/S 745 mmHg 44%
    16:00 +31°C° 0 mm 2 m/S 744 mmHg 47%
    17:00 +31°C° 0 mm 2 m/S 744 mmHg 50%
    18:00 +29°C° 0 mm 2 m/S 744 mmHg 56%
    19:00 +27°C° 0 mm 1 m/S 744 mmHg 62%
    20:00 +25°C° 0 mm 1 m/S 744 mmHg 68%
    21:00 +25°C° 0 mm 1 m/S 745 mmHg 68%
    22:00 +24°C° 0 mm 1 m/S 745 mmHg 68%
    23:00 +24°C° 0 mm 1 m/S 745 mmHg 68%
    Mehr zeigen